Simultaneous Nadir Overpasses (SNOs) Predictions

Prediction of SNOs between NOAA-19 and NPP Satellite Orbit:

Table of predicted SNOs for the next 14.0 days since TLE Epoch: 5/1/2016
Index Date (NOAA-19) Time (NOAA-19) Lat,Lon (NOAA-19) SZA (NOAA-19 ) Date (NPP) Time (NPP) Lat,Lon (NPP) SZA (NPP ) Distance(km) Time Diff (sec)
1 05/10/2016 21:43:51 81.00, 160.65 66.74 05/10/2016 21:44:59 81.01, 160.76 66.70 1.92 68
2 05/10/2016 22:34:56 -81.00, -31.85 113.30 05/10/2016 22:35:44 -81.01, -31.99 113.31 2.47 48
3 05/10/2016 23:25:53 81.00, 135.18 66.72 05/10/2016 23:26:29 81.01, 135.35 66.68 2.94 36
4 05/11/2016 00:16:58 -81.00, -57.32 113.33 05/11/2016 00:17:14 -81.01, -57.40 113.32 1.47 16
5 05/11/2016 01:07:54 81.00, 110.09 66.65 05/11/2016 01:07:59 81.01, 109.94 66.67 2.70 5
6 05/11/2016
